Game: Castlevania: Circle of the Moon
Bid: Fighter Mode Total: $2,810.00

Owners
Fighter Mode Vs Magician Mode
Description
No DSS system, attack strength and stats are significantly increased.
NameAscDsc Time ReceivedAscDsc AmountAscDsc
Lord_Mikoda 2018-06-26T14:22:31.901899-04:00 $5.00
Pichu_Max 2018-06-26T14:17:59.648844-04:00 $5.00
DevilREI 2018-06-26T13:58:54.448293-04:00 $15.00
(Anonymous) 2018-06-26T13:53:21.433370-04:00 $5.00
(Anonymous) 2018-06-26T13:47:59.422417-04:00 $5.00
Keeper 2018-06-26T13:02:25.176453-04:00 $50.00
Sigmatic Saki 2018-06-26T12:58:56.530779-04:00 $15.00
ew995 2018-06-26T07:10:41.564477-04:00 $1,000.00
ew995 2018-06-26T06:45:02.867154-04:00 $100.00
ew995 2018-06-26T06:05:44.915435-04:00 $1,000.00
ew995 2018-06-26T05:39:38.355622-04:00 $25.00
Shikaroxen 2018-06-26T04:49:07.853010-04:00 $5.00
Icey 2018-06-26T01:53:48.778958-04:00 $5.00
Evan 2018-06-26T00:17:08.032197-04:00 $75.00
Moaifus 2018-06-25T12:22:43.253975-04:00 $15.00
(Anonymous) 2018-06-25T12:13:16.549978-04:00 $25.00
(Anonymous) 2018-06-25T08:05:08.230327-04:00 $15.00
St3fan_Zulu 2018-06-25T00:50:58.672369-04:00 $25.00
Chappell, Corey (snesei) 2018-06-25T00:24:23.931688-04:00 $15.00
TempestAthena 2018-06-24T22:21:56.687254-04:00 $20.00
RogueLink 2018-06-24T22:10:53.605282-04:00 $150.00
Big K 2018-06-24T21:32:38.709634-04:00 $210.00
(Anonymous) 2018-06-24T21:01:24.975049-04:00 $25.00

|< >|

Back to Bid Index

Back to Main Index

Running on Django with Python
Python code by UraniumAnchor, SMK, and jdeng
CSS by Cool Matty